{"data":{"norad_id":62438,"intl_designator":"2024-251G","name":"STARLINK-32721","alt_names":[],"object_type":"PAYLOAD","status":"ACTIVE","operator":null,"country":"US","launch_date":"2024-12-29","launch_site_code":"AFWTR","launch_vehicle":null,"mission":null,"orbit_class":"UNKNOWN","rcs_meters":null,"size_class":null,"mass_kg":null,"dimensions":null,"purposes":["comms"],"wikipedia_slug":null,"has_3d_model":false,"image_url":null,"decayed_at":null,"tle_current":{"epoch":"2026-05-24T19:17:27.062016Z","epoch_age_seconds":102743,"freshness":"FRESH","line1":"1 62438U 24251G   26144.80378544  .00016335  00000+0  56213-3 0  9990","line2":"2 62438  53.1609 341.6302 0001305  68.1774 291.9365 15.30217298 79548","mean_motion":15.30217298,"eccentricity":0.0001305,"inclination_deg":53.1609,"raan_deg":341.6302,"arg_perigee_deg":68.1774,"mean_anomaly_deg":291.9365,"bstar":0.00056213,"rev_number":7954,"period_min":94.104281913561,"perigee_km":474.26906549089,"apogee_km":476.05777690082,"semimajor_km":6853.3004211959,"source":"CELESTRAK","updated_at":"2026-05-25T13:38:19.658193Z"}}}